Weather History for Massena, NY

Change the Weather History Date:

Monday, February 11, 2013

  Actual Average Record
Temperature  
Mean Temperature 25 °F 17 °F  
Max Temperature 39 °F 27 °F 56 °F (1981)
Min Temperature 11 °F 6 °F -25 °F (1979)
Degree Days  
Heating Degree Days 40 48  
Month to date heating degree days 620 542  
Since 1 July heating degree days 4828 5205  
Moisture  
Dew Point 20 °F    
Average Humidity 73    
Maximum Humidity 85    
Minimum Humidity 61    
Precipitation  
Precipitation 0.03 in 0.07 in 0.58 in (1960)
Month to date precipitation 0.07 0.65  
Year to date precipitation 1.51 2.83  
Sea Level Pressure  
Sea Level Pressure 29.74 in    
Wind  
Wind Speed 9 mph (East)    
Max Wind Speed 25 mph    
Max Gust Speed 38 mph    
Visibility 8 miles    
Events Rain , Snow    
T = Trace of Precipitation, MM = Missing Value Source: NWS Daily Summary

Daily Weather History Graph

Daily Weather History Graph

Search for Another Location

Airport:

Trip Planner

Search our weather history database for the weather conditions in past years. The results will help you decide how hot, cold, wet, or windy it might be!

Date:

Astronomy

Feb. 11, 2013 Rise Set
Actual Time 7:05 AM EST 5:22 PM EST
Civil Twilight 6:35 AM EST 5:52 PM EST
Nautical Twilight 6:00 AM EST 6:27 PM EST
Astronomical Twilight 5:26 AM EST 7:01 PM EST
Moon 7:22 AM EST (2/11) 7:23 PM EST (2/11)
Length of Visible Light 11h 17m
Length of Day
10h 16m
Waxing Crescent, 3% of the Moon is Illuminated
Feb 11
Waxing Crescent
Feb 17
First Quarter
Feb 25
Full
Mar 4
Last Quarter
Mar 11
New

Hourly Weather History & Observations

Time (EST) Temp. Windchill Dew Point Humidity Pressure Visibility Wind Dir Wind Speed Gust Speed Precip Events Conditions
12:53 AM 12.9 °F 1.6 °F 5.0 °F 71% 30.13 in 10.0 mi NE 8.1 mph - N/A   Clear
1:53 AM 16.0 °F 4.4 °F 6.1 °F 65% 30.11 in 10.0 mi ENE 9.2 mph - N/A   Partly Cloudy
2:53 AM 16.0 °F 8.8 °F 7.0 °F 68% 30.09 in 10.0 mi NE 4.6 mph - N/A   Scattered Clouds
3:53 AM 17.1 °F 6.6 °F 7.0 °F 65% 30.03 in 10.0 mi ENE 8.1 mph - N/A   Partly Cloudy
4:53 AM 17.1 °F 7.6 °F 8.1 °F 68% 29.99 in 10.0 mi East 6.9 mph - N/A   Overcast
5:53 AM 17.1 °F 5.8 °F 9.0 °F 71% 29.95 in 10.0 mi ENE 9.2 mph - N/A   Overcast
6:53 AM 18.0 °F 6.9 °F 10.0 °F 71% 29.91 in 10.0 mi East 9.2 mph - N/A   Overcast
7:53 AM 18.0 °F 8.7 °F 10.0 °F 71% 29.89 in 10.0 mi ENE 6.9 mph - N/A   Overcast
8:53 AM 19.0 °F 11.1 °F 12.0 °F 74% 29.86 in 10.0 mi ENE 5.8 mph - N/A   Overcast
9:53 AM 19.0 °F 13.9 °F 12.0 °F 74% 29.83 in 2.0 mi NNE 3.5 mph - 0.00 in Snow Light Snow
10:07 AM 19.4 °F 12.8 °F 12.2 °F 74% 29.80 in 1.2 mi ENE 4.6 mph - 0.00 in Snow Light Snow
10:16 AM 19.4 °F 10.4 °F 14.0 °F 80% 29.79 in 0.8 mi ENE 6.9 mph - 0.00 in Snow Light Snow
10:22 AM 19.4 °F 10.4 °F 14.0 °F 80% 29.79 in 1.5 mi ENE 6.9 mph - 0.00 in Snow Light Snow
10:25 AM 19.4 °F 11.5 °F 14.0 °F 80% 29.78 in 2.0 mi ENE 5.8 mph - 0.00 in Snow Light Snow
10:34 AM 19.4 °F 9.5 °F 14.0 °F 80% 29.77 in 6.0 mi ENE 8.1 mph - 0.00 in Snow Light Snow
10:53 AM 19.9 °F 12.1 °F 15.1 °F 81% 29.80 in 7.0 mi ENE 5.8 mph - 0.00 in   Overcast
11:05 AM 19.4 °F 12.8 °F 15.8 °F 86% 29.76 in 2.5 mi ENE 4.6 mph - 0.00 in Snow Light Snow
11:35 AM 21.2 °F 12.6 °F 15.8 °F 80% 29.72 in 4.0 mi ENE 6.9 mph - 0.00 in   Overcast
11:53 AM 21.9 °F 14.5 °F 17.1 °F 82% 29.73 in 10.0 mi East 5.8 mph - 0.00 in   Overcast
12:53 PM 24.1 °F 18.2 °F 19.0 °F 81% 29.69 in 10.0 mi ENE 4.6 mph - N/A   Overcast
1:53 PM 25.0 °F 17.1 °F 19.9 °F 81% 29.65 in 6.0 mi NE 6.9 mph - 0.00 in   Haze
2:53 PM 27.0 °F 19.5 °F 21.9 °F 81% 29.63 in 10.0 mi NE 6.9 mph - N/A   Overcast
3:48 PM 28.4 °F 23.3 °F 24.8 °F 86% 29.58 in 9.0 mi East 4.6 mph - 0.00 in   Overcast
3:53 PM 28.9 °F 23.9 °F 24.1 °F 82% 29.60 in 9.0 mi East 4.6 mph - 0.00 in   Overcast
4:53 PM 30.0 °F - 25.0 °F 82% 29.60 in 8.0 mi Calm Calm - 0.00 in   Overcast
5:50 PM 30.2 °F - 26.6 °F 86% 29.59 in 9.0 mi Calm Calm - 0.01 in Rain Light Freezing Rain
5:53 PM 30.0 °F - 27.0 °F 88% 29.61 in 9.0 mi Calm Calm - 0.01 in Rain Light Freezing Rain
6:11 PM 33.8 °F 24.8 °F 28.4 °F 81% 29.59 in 8.0 mi SW 12.7 mph 17.3 mph 0.00 in   Overcast
6:28 PM 39.2 °F 29.6 °F 33.8 °F 81% 29.59 in 10.0 mi SW 19.6 mph 27.6 mph 0.01 in Rain Light Rain
6:42 PM 39.2 °F 31.2 °F 33.8 °F 81% 29.58 in 10.0 mi SW 13.8 mph 24.2 mph 0.01 in Rain Light Rain
6:53 PM 39.0 °F 31.0 °F 34.0 °F 82% 29.60 in 10.0 mi SW 13.8 mph - 0.01 in   Overcast
7:42 PM 37.4 °F 28.9 °F 33.8 °F 87% 29.57 in 10.0 mi SSW 13.8 mph - N/A   Overcast
7:53 PM 37.9 °F 29.2 °F 33.1 °F 83% 29.59 in 10.0 mi SSW 15.0 mph 23.0 mph N/A   Overcast
8:53 PM 36.0 °F 25.0 °F 30.9 °F 82% 29.60 in 10.0 mi SW 20.7 mph 29.9 mph 0.01 in Rain Light Rain
9:53 PM 35.1 °F 25.5 °F 30.9 °F 85% 29.62 in 10.0 mi SW 15.0 mph - 0.00 in   Overcast
10:53 PM 35.1 °F 25.2 °F 30.0 °F 82% 29.62 in 10.0 mi SW 16.1 mph 25.3 mph N/A   Overcast
11:19 PM 35.6 °F 25.9 °F 30.2 °F 81% 29.59 in 10.0 mi SW 16.1 mph 24.2 mph N/A   Overcast
11:53 PM 35.1 °F 24.8 °F 30.0 °F 82% 29.60 in 10.0 mi SW 17.3 mph 24.2 mph N/A   Overcast